User: anonymous   Login
Location: Sabalos
(43.2860°N, 0.1414°E)
Time: 08:57:45
(UTC+00:00)
Language:

ATLAS 2AS CENTAUR R/B - Orbit

View from above orbital plane
View from above orbital plane
View from above satellite
View from above satellite

Ground track
Ground track

The orbit data is extracted from the following two-line orbital elements,

1 28096U 03054B   20262.05164462 0.00000000  00000-0  00000-0 0    00
2 28096  63.6804 293.2485 0223745 226.8487 133.1513 13.40863442    09
Epoch (UTC): 18 September 2020 01:14:22
Eccentricity: 0.0223745
inclination: 63.6804°
perigee height: 938 km
apogee height: 1273 km
right ascension of ascending node: 293.2485°
argument of perigee: 226.8487°
revolutions per day: 13.40863442
mean anomaly at epoch: 133.1513°
orbit number at epoch: 0

The dashed part of the orbit path shows where the satellite is in the earth's shadow,  

DLR